Precipitable_Water
0.63 0.52 0.44 0.51 0.54 0.55 0.53 0.49 0.46 0.54 0.67 0.62 0.63 0.65 0.79 0.95 1.02 1.12 1.14 1.23 1.35 1.49 1.58 1.58 1.58 1.66 1.72 1.80 1.82 1.81 1.73 1.74 1.76 1.76 1.72 1.76 1.69 1.75 1.81 1.89 1.86 1.74 1.74 1.66
0.54 0.40 0.55 0.57 0.56 0.53 0.46 0.41 0.41 0.62 0.67 0.65 0.64 0.60 0.74 0.85 1.00 1.10 1.09 1.15 1.20 1.28 1.35 1.44 1.49 1.56 1.57 1.67 1.80 1.81 1.80 1.81 1.83 1.83 1.81 1.83 1.82 1.80 1.81 1.90 1.93 1.94 1.87 1.81
0.43 0.47 0.54 0.53 0.52 0.46 0.40 0.36 0.39 0.44 0.62 0.67 0.61 0.54 0.63 0.75 0.93 1.07 1.19 1.20 1.21 1.21 1.14 1.22 1.31 1.38 1.44 1.51 1.65 1.78 1.83 1.85 1.83 1.85 1.85 1.82 1.84 1.81 1.74 1.79 1.86 1.93 1.97 1.96
0.41 0.50 0.51 0.50 0.46 0.44 0.34 0.38 0.39 0.48 0.46 0.38 0.58 0.37 0.56 0.72 0.88 1.01 1.15 1.27 1.26 1.26 1.21 1.19 1.34 1.49 1.60 1.67 1.82 1.86 1.92 1.80 1.81 1.82 1.80 1.73 1.70 1.63 1.69 1.70 1.80 1.91 2.01 2.00
0.32 0.42 0.44 0.41 0.40 0.38 0.33 0.35 0.39 0.45 0.43 0.42 0.45 0.41 0.46 0.73 0.79 0.91 0.91 0.95 1.19 1.35 1.12 1.16 1.32 1.54 1.70 1.84 1.82 1.72 1.70 1.91 1.87 1.91 1.94 1.90 1.84 1.84 1.82 1.83 1.79 1.80 2.02 2.07
0.37 0.42 0.42 0.42 0.38 0.34 0.35 0.35 0.40 0.39 0.36 0.25 0.38 0.39 0.39 0.62 0.78 0.85 0.92 0.93 1.09 1.32 1.20 1.15 1.36 1.56 1.60 1.76 1.87 1.89 1.86 1.80 1.79 1.71 1.77 1.86 1.87 1.89 1.87 1.84 1.73 1.73 1.71 1.95
0.35 0.36 0.41 0.36 0.28 0.31 0.31 0.28 0.22 0.21 0.25 0.21 0.42 0.40 0.44 0.68 0.86 0.89 0.88 0.97 1.21 1.23 1.17 1.29 1.46 1.51 1.58 1.61 1.62 1.76 1.82 1.77 1.87 1.65 1.48 1.66 1.81 1.83 1.86 1.88 1.91 1.85 1.80 1.81
0.27 0.28 0.35 0.34 0.28 0.26 0.25 0.25 0.22 0.16 0.16 0.22 0.45 0.35 0.45 0.77 0.95 1.05 1.04 1.15 1.30 1.34 1.41 1.44 1.61 1.68 1.68 1.74 1.79 1.73 1.72 1.77 1.86 1.81 1.56 1.68 1.90 1.89 1.88 1.88 2.03 2.04 1.99 2.03
0.24 0.28 0.33 0.32 0.32 0.28 0.24 0.22 0.27 0.23 0.32 0.27 0.35 0.47 0.65 0.84 1.01 1.10 1.05 1.23 1.32 1.34 1.39 1.49 1.55 1.59 1.49 1.59 1.66 1.72 1.71 1.76 1.75 1.80 1.85 1.86 2.03 1.97 1.95 1.95 1.96 2.06 2.12 2.10
0.27 0.25 0.28 0.32 0.44 0.36 0.26 0.35 0.26 0.33 0.25 0.28 0.37 0.42 0.42 0.63 0.85 1.02 1.03 1.18 1.31 1.44 1.37 1.30 1.24 1.16 1.11 1.06 1.09 1.19 1.35 1.48 1.56 1.59 1.63 1.63 1.62 1.61 1.58 1.54 1.49 1.48 1.55 1.70
0.28 0.26 0.24 0.30 0.35 0.36 0.36 0.34 0.37 0.41 0.46 0.34 0.30 0.37 0.65 0.68 0.85 0.91 1.08 1.20 1.23 1.17 1.08 1.04 1.02 0.97 0.93 0.90 0.86 0.79 0.74 0.75 0.79 0.90 1.03 1.09 1.24 1.25 1.28 1.26 1.29 1.30 1.34 1.39
0.25 0.26 0.25 0.30 0.49 0.57 0.50 0.46 0.47 0.40 0.39 0.44 0.44 0.38 0.69 0.76 0.93 0.99 1.04 1.12 1.19 1.18 1.14 1.10 0.96 0.87 0.80 0.77 0.73 0.63 0.63 0.63 0.66 0.70 0.72 0.72 0.74 0.76 0.78 0.83 0.93 1.05 1.10 1.19
0.21 0.22 0.23 0.32 0.42 0.50 0.47 0.52 0.51 0.49 0.47 0.37 0.33 0.33 0.72 0.75 0.89 1.00 1.03 1.11 1.13 1.14 1.15 1.13 1.00 0.89 0.89 0.87 0.73 0.62 0.59 0.55 0.55 0.54 0.54 0.54 0.56 0.60 0.67 0.75 0.82 0.84 0.87 0.93
0.31 0.26 0.22 0.19 0.25 0.38 0.39 0.42 0.46 0.43 0.34 0.35 0.35 0.38 0.55 0.72 0.81 0.94 1.02 1.07 1.10 1.11 1.10 1.12 1.06 1.04 1.02 0.96 0.82 0.69 0.62 0.56 0.54 0.52 0.54 0.56 0.59 0.61 0.61 0.64 0.68 0.75 0.82 0.89
0.40 0.28 0.34 0.39 0.41 0.44 0.44 0.46 0.50 0.45 0.45 0.37 0.38 0.38 0.55 0.73 0.83 0.90 0.99 1.03 0.98 1.03 1.04 1.03 1.03 1.01 0.97 0.90 0.79 0.69 0.60 0.54 0.52 0.52 0.54 0.57 0.63 0.66 0.67 0.65 0.65 0.66 0.69 0.74
0.55 0.40 0.44 0.42 0.53 0.53 0.46 0.51 0.56 0.56 0.55 0.49 0.45 0.47 0.66 0.81 0.92 0.94 0.94 0.98 1.00 1.00 1.01 1.04 1.00 0.92 0.88 0.83 0.76 0.66 0.57 0.54 0.55 0.55 0.57 0.62 0.66 0.67 0.69 0.71 0.72 0.71 0.69 0.70
0.56 0.52 0.47 0.41 0.57 0.56 0.45 0.52 0.55 0.56 0.59 0.56 0.44 0.53 0.75 0.74 0.81 0.89 0.88 0.89 0.88 0.94 0.97 0.96 0.88 0.85 0.83 0.79 0.74 0.59 0.55 0.54 0.54 0.56 0.59 0.61 0.64 0.65 0.68 0.70 0.71 0.71 0.71 0.73
0.59 0.57 0.57 0.49 0.54 0.39 0.51 0.63 0.61 0.58 0.61 0.65 0.63 0.66 0.77 0.77 0.84 0.91 0.93 0.90 0.86 0.84 0.88 0.90 0.86 0.81 0.81 0.80 0.68 0.58 0.53 0.52 0.51 0.54 0.57 0.59 0.61 0.63 0.67 0.70 0.70 0.73 0.76 0.77
0.68 0.57 0.52 0.48 0.48 0.51 0.53 0.56 0.56 0.54 0.50 0.59 0.58 0.64 0.75 0.85 0.85 0.80 0.92 0.98 0.97 0.93 0.90 0.87 0.87 0.85 0.82 0.71 0.64 0.54 0.49 0.52 0.52 0.51 0.54 0.58 0.62 0.63 0.67 0.68 0.71 0.75 0.77 0.81
0.59 0.62 0.51 0.47 0.38 0.31 0.43 0.54 0.66 0.67 0.47 0.63 0.65 0.67 0.72 0.79 0.61 0.66 0.87 0.97 0.97 0.96 0.93 0.88 0.88 0.85 0.73 0.66 0.62 0.51 0.49 0.50 0.48 0.50 0.54 0.62 0.65 0.67 0.69 0.73 0.75 0.81 0.84 0.85
0.43 0.45 0.40 0.39 0.35 0.41 0.55 0.63 0.69 0.46 0.49 0.66 0.71 0.71 0.75 0.72 0.78 0.89 0.97 0.97 0.97 0.93 0.91 0.90 0.84 0.72 0.67 0.65 0.53 0.46 0.46 0.44 0.51 0.55 0.59 0.64 0.68 0.71 0.75 0.79 0.83 0.85 0.86 0.88
0.47 0.44 0.44 0.46 0.42 0.40 0.69 0.66 0.51 0.58 0.64 0.66 0.73 0.77 0.79 0.88 0.91 0.92 0.93 0.92 0.90 0.89 0.85 0.80 0.68 0.67 0.68 0.58 0.47 0.42 0.43 0.52 0.56 0.57 0.60 0.65 0.69 0.72 0.77 0.80 0.83 0.86 0.88 0.87
0.44 0.51 0.49 0.53 0.51 0.69 0.71 0.63 0.71 0.71 0.68 0.73 0.79 0.86 0.91 0.91 0.89 0.91 0.87 0.85 0.81 0.75 0.67 0.69 0.69 0.66 0.58 0.48 0.45 0.42 0.50 0.56 0.58 0.59 0.61 0.65 0.70 0.74 0.80 0.80 0.82 0.85 0.89 0.89
0.62 0.70 0.58 0.60 0.68 0.69 0.70 0.70 0.73 0.74 0.73 0.79 0.85 0.88 0.88 0.82 0.82 0.78 0.74 0.72 0.67 0.65 0.66 0.71 0.66 0.53 0.44 0.46 0.48 0.49 0.51 0.53 0.56 0.57 0.59 0.63 0.65 0.71 0.77 0.82 0.85 0.84 0.84 0.86
0.59 0.66 0.60 0.59 0.67 0.71 0.71 0.73 0.74 0.75 0.80 0.78 0.78 0.76 0.76 0.73 0.69 0.64 0.59 0.58 0.61 0.68 0.71 0.67 0.57 0.49 0.45 0.48 0.48 0.50 0.48 0.50 0.48 0.51 0.54 0.56 0.60 0.62 0.66 0.77 0.83 0.86 0.87 0.86
0.65 0.60 0.56 0.50 0.63 0.61 0.63 0.74 0.78 0.75 0.76 0.77 0.76 0.74 0.76 0.70 0.60 0.57 0.59 0.67 0.69 0.68 0.67 0.59 0.54 0.51 0.48 0.47 0.44 0.46 0.47 0.48 0.46 0.45 0.47 0.49 0.54 0.55 0.57 0.60 0.68 0.86 0.89 0.90
Wind_Speed
10 7 8 6 4 4 4 5 4 3 3 2 3 5 7 6 5 4 5 6 7 5 4 4 4 7 7 7 8 8 9 10 10 10 10 9 8 8 7 6 7 8 8 7
10 12 10 7 5 4 4 5 3 1 3 2 2 5 7 6 5 5 6 7 5 2 0 2 3 6 7 8 9 9 9 9 10 10 10 10 9 9 8 8 8 8 9 9
15 14 9 7 6 3 5 4 3 2 1 1 2 7 7 6 6 8 8 5 3 1 2 3 3 4 5 7 9 8 8 9 10 11 11 11 11 11 11 11 10 10 11 12
16 15 13 10 9 6 4 5 2 5 2 3 4 6 6 8 10 10 9 7 6 5 4 5 4 3 3 4 5 6 7 7 7 9 11 12 12 12 12 12 13 13 13 13
15 14 11 9 10 7 7 3 3 3 1 2 5 5 7 8 10 9 9 7 6 6 7 4 5 5 5 4 6 6 2 6 6 7 9 12 14 14 14 14 14 14 15 16
15 11 11 12 8 8 7 2 1 2 3 4 5 4 9 7 8 9 8 9 7 6 7 6 5 5 6 5 5 7 8 8 6 9 9 9 11 12 14 15 16 16 17 17
11 12 11 10 9 8 6 4 5 4 5 7 4 6 9 9 9 8 10 12 3 4 8 6 3 3 3 5 5 6 9 8 10 11 11 10 11 11 13 15 16 17 17 17
13 10 12 9 10 8 8 9 8 7 6 7 5 8 10 9 10 9 8 5 4 7 8 6 3 2 1 2 3 3 5 8 9 9 6 7 9 12 14 14 15 17 18 19
13 10 8 8 8 9 8 6 7 4 6 5 7 9 10 9 9 6 5 1 5 6 7 6 4 1 1 2 3 3 4 4 6 9 12 13 13 13 15 16 16 17 18 19
14 10 8 6 5 3 9 7 3 4 3 7 8 8 8 6 6 5 5 6 7 8 7 5 3 2 1 2 4 5 6 7 8 9 9 10 12 13 14 16 17 18 19 18
16 11 10 6 5 6 6 6 4 4 4 4 7 9 9 7 7 6 5 8 8 9 7 6 4 2 3 5 6 8 8 8 9 9 10 11 13 15 16 17 18 19 19 20
17 11 10 10 7 7 8 7 6 4 7 6 7 10 9 6 6 7 7 8 8 9 8 6 4 3 4 7 8 8 8 8 9 11 13 14 16 17 18 20 20 21 21 21
18 13 9 8 7 7 6 7 7 6 6 8 6 12 11 7 8 10 9 10 9 10 9 7 5 5 6 8 8 9 10 11 12 13 14 15 16 17 19 20 21 22 23 23
14 13 15 14 12 10 10 9 8 7 9 10 12 12 12 8 9 11 10 10 10 11 10 9 8 9 10 11 11 11 12 13 14 15 16 17 18 19 20 21 22 22 23 23
12 12 12 11 10 10 10 9 9 10 10 10 12 12 9 9 10 12 11 11 10 12 11 11 10 11 12 12 13 13 14 15 16 17 17 18 19 20 22 23 24 24 25 25
10 10 10 9 8 8 9 10 11 13 12 14 10 10 9 10 8 10 10 12 13 13 13 12 12 12 13 13 14 15 16 17 17 17 19 20 21 21 22 22 23 24 24 25
9 10 10 11 9 10 11 14 13 13 12 10 10 11 9 7 11 13 12 13 13 14 13 12 12 12 13 14 15 17 17 17 18 19 20 21 20 21 22 24 24 24 25 26
11 10 10 11 10 12 14 13 14 13 12 13 11 10 10 9 9 11 12 13 12 12 12 13 13 13 14 15 17 17 18 19 20 20 20 21 22 23 24 24 24 25 26 27
14 12 12 13 15 17 12 13 10 9 12 11 12 10 10 9 9 10 11 12 12 12 12 13 13 14 15 16 17 18 19 20 20 20 21 22 23 24 24 25 25 26 27 27
13 14 14 14 13 14 15 13 12 11 13 12 10 11 11 11 11 13 12 12 11 11 12 13 14 15 16 17 18 19 19 20 20 22 23 23 23 24 24 25 26 26 27 27
12 13 13 14 13 15 13 11 10 9 13 12 11 11 11 12 13 12 11 11 12 12 13 13 15 16 17 18 19 19 20 20 22 23 23 24 24 24 24 25 26 26 27 27
12 11 12 10 9 12 10 9 10 13 12 11 10 11 10 10 9 9 10 11 12 12 14 15 16 17 18 19 19 19 20 22 23 23 23 23 23 24 24 25 25 26 26 26
11 13 12 13 13 11 11 12 12 12 12 11 10 11 11 10 10 10 11 12 13 14 15 15 16 17 18 18 19 20 21 22 22 22 22 22 23 23 24 24 25 24 24 23
12 11 10 10 12 12 12 12 11 11 10 9 9 9 9 10 11 12 13 13 14 14 15 15 16 17 17 18 19 20 21 21 21 21 21 22 22 23 23 23 23 23 23 23
14 12 12 13 14 14 14 13 11 9 8 7 7 8 9 10 12 13 13 13 13 14 15 16 16 17 18 18 19 20 20 20 21 21 21 21 22 22 23 23 23 22 22 22
15 15 15 16 16 15 14 13 12 10 10 9 9 9 10 10 11 11 11 12 13 14 15 16 17 17 18 19 19 20 20 20 20 20 20 21 22 23 23 24 24 23 22 22
Wind_Direction
216 210 212 211 223 228 262 273 262 283 263 277 327 353 344 336 344 323 314 307 317 329 245 229 220 204 209 203 195 189 185 192 194 201 207 215 224 227 231 238 241 240 241 242
218 220 207 215 225 234 276 297 292 264 291 242 281 338 332 330 330 330 328 324 339 332 211 203 208 207 206 201 198 198 202 203 206 209 217 223 229 235 240 246 248 247 245 245
211 204 217 235 239 249 270 257 253 226 161 13 299 329 334 332 329 319 317 316 319 315 242 196 177 162 193 201 201 209 206 214 220 228 231 235 240 246 248 251 254 256 254 253
213 220 221 232 225 214 272 272 238 191 226 250 315 311 318 331 329 321 312 308 289 245 203 186 184 180 183 204 213 222 219 217 225 231 236 239 244 247 251 254 257 259 258 258
201 201 202 220 211 225 254 305 207 223 242 313 312 329 312 321 320 318 306 281 272 228 196 194 210 232 248 244 248 235 233 216 234 247 252 250 250 254 257 259 260 261 263 264
203 212 213 207 233 236 236 227 325 273 269 307 302 309 313 307 310 314 317 311 265 221 206 210 235 236 234 255 265 252 234 252 265 273 265 253 251 257 261 262 263 266 266 264
208 211 213 218 242 233 221 228 272 290 291 268 298 319 302 301 303 301 306 333 200 189 184 182 192 216 244 275 284 272 250 257 251 294 244 256 258 264 270 274 269 265 267 268
188 208 204 218 219 226 229 225 236 243 257 280 289 289 311 305 298 294 302 353 142 142 162 165 173 177 313 329 315 284 272 260 262 267 271 288 271 272 278 282 278 271 270 271
189 209 214 225 244 235 228 240 247 239 288 294 291 301 314 311 314 282 279 342 171 161 153 152 171 176 23 8 5 339 325 300 287 278 277 284 285 281 284 289 292 289 288 283
197 203 212 230 259 233 222 211 258 287 262 280 299 299 298 301 285 259 240 220 197 188 192 191 192 197 320 342 336 327 319 308 300 298 291 290 291 293 293 292 292 291 289 288
199 203 224 244 263 229 225 245 276 254 291 279 299 300 302 272 244 227 218 200 194 193 191 186 200 249 303 320 319 314 310 306 304 299 296 295 295 295 295 295 295 294 291 289
201 201 221 237 234 237 244 237 238 254 266 291 300 302 315 286 230 213 205 198 200 205 203 207 221 263 297 312 316 314 311 310 307 304 300 299 297 296 295 295 295 295 293 290
205 220 226 261 260 245 248 257 260 269 282 271 282 297 310 281 235 221 215 216 221 211 211 224 242 274 298 308 312 311 309 307 306 306 305 304 303 302 300 299 297 295 293 290
209 224 224 230 242 235 242 249 259 274 283 277 280 293 292 271 233 227 223 220 216 214 220 237 258 278 292 299 303 305 307 306 306 306 306 305 304 303 302 300 299 298 296 294
215 225 235 251 249 244 247 251 260 279 288 281 290 279 268 248 235 214 218 219 218 223 234 247 263 280 289 296 301 304 306 307 307 308 308 308 307 306 305 303 301 299 297 295
225 232 227 244 246 259 263 270 271 282 290 290 278 277 281 254 227 221 221 222 226 236 244 252 266 278 288 295 300 303 305 307 308 309 309 309 309 309 309 309 308 305 301 297
231 217 226 229 251 267 273 264 270 280 283 274 265 274 275 259 227 224 227 227 230 238 247 254 266 279 289 296 301 303 303 305 307 308 309 309 309 309 311 310 309 307 305 302
227 228 239 239 249 258 268 276 277 273 277 264 268 268 261 259 248 244 240 234 238 240 245 255 268 279 287 294 299 300 302 304 306 307 308 309 309 309 310 311 310 309 308 306
243 239 245 242 251 270 273 270 272 267 278 267 259 254 261 252 251 260 246 249 246 249 253 262 271 281 289 296 299 301 303 305 307 309 310 309 309 309 310 311 311 310 310 308
247 245 242 247 255 261 264 265 269 272 280 271 256 246 246 244 253 258 245 246 245 250 259 267 276 285 292 296 298 302 304 304 306 308 309 308 309 309 309 310 310 311 311 309
248 248 240 248 254 267 261 260 257 272 273 279 262 255 244 253 259 246 239 246 247 255 262 272 281 288 292 295 299 302 303 304 305 306 306 307 308 309 309 310 311 313 312 310
234 229 237 241 248 264 257 259 253 270 287 277 265 252 250 251 248 240 238 243 250 259 268 277 283 288 292 296 300 302 304 306 306 306 307 307 309 308 309 310 312 314 313 312
243 237 239 235 246 252 263 266 272 271 274 270 258 250 243 243 247 247 250 253 259 266 272 278 284 290 294 296 300 303 305 307 307 308 309 309 309 309 310 311 313 315 317 318
246 240 240 241 248 260 273 271 268 269 269 258 250 238 245 249 249 257 259 261 265 268 273 280 286 291 294 298 301 303 306 307 307 308 309 311 311 312 313 314 314 314 316 317
242 244 245 253 256 262 264 263 260 261 257 254 252 256 259 261 263 261 260 261 265 270 277 282 288 292 295 297 300 303 306 306 307 307 309 311 312 313 313 314 315 313 315 316
244 244 248 254 256 259 261 248 247 249 251 247 252 263 271 271 264 261 261 264 268 275 282 287 289 291 294 296 299 302 305 306 308 308 310 311 312 314 313 313 312 311 309 312